TimePDT,TemperatureF,Dew PointF,Humidity,Sea Level PressureIn,VisibilityMPH,Wind Direction,Wind SpeedMPH,Gust SpeedMPH,PrecipitationIn,Events,Conditions,WindDirDegrees,DateUTC
12:53 AM,64.0,54.0,70,29.93,10.0,SSE,4.6,-,N/A,,Clear,160,2013-09-05 07:53:00
1:53 AM,63.0,54.0,72,29.92,10.0,SSE,5.8,-,N/A,,Clear,150,2013-09-05 08:53:00
2:53 AM,62.1,54.0,75,29.92,10.0,SSE,4.6,-,N/A,,Clear,160,2013-09-05 09:53:00
3:53 AM,61.0,54.0,78,29.92,10.0,South,6.9,-,N/A,,Clear,170,2013-09-05 10:53:00
4:53 AM,60.1,54.0,80,29.92,10.0,SSE,3.5,-,N/A,,Clear,150,2013-09-05 11:53:00
5:53 AM,60.1,54.0,80,29.94,10.0,SSE,5.8,-,N/A,,Clear,150,2013-09-05 12:53:00
6:53 AM,59.0,54.0,83,29.95,10.0,SSE,4.6,-,N/A,,Clear,150,2013-09-05 13:53:00
7:53 AM,62.1,55.0,78,29.96,10.0,Variable,4.6,-,N/A,,Clear,0,2013-09-05 14:53:00
8:53 AM,64.9,55.9,73,29.96,10.0,South,8.1,-,N/A,,Clear,190,2013-09-05 15:53:00
9:53 AM,69.1,55.9,63,29.97,10.0,South,6.9,-,N/A,,Clear,180,2013-09-05 16:53:00
10:53 AM,73.0,54.0,51,29.98,10.0,Variable,5.8,-,N/A,,Clear,0,2013-09-05 17:53:00
11:53 AM,77.0,53.1,43,29.97,10.0,South,6.9,-,N/A,,Clear,190,2013-09-05 18:53:00
12:53 PM,79.0,53.1,40,29.96,10.0,South,8.1,-,N/A,,Clear,190,2013-09-05 19:53:00
1:53 PM,82.0,50.0,33,29.96,10.0,South,4.6,-,N/A,,Clear,180,2013-09-05 20:53:00
2:53 PM,84.0,46.9,27,29.93,10.0,SW,4.6,-,N/A,,Clear,220,2013-09-05 21:53:00
3:53 PM,86.0,46.9,26,29.91,10.0,SSW,9.2,-,N/A,,Clear,210,2013-09-05 22:53:00
4:53 PM,86.0,46.0,25,29.90,10.0,SSW,8.1,-,N/A,,Clear,210,2013-09-05 23:53:00
5:53 PM,84.0,48.0,28,29.89,10.0,SW,12.7,-,N/A,,Clear,220,2013-09-06 00:53:00
6:53 PM,79.0,51.1,38,29.89,10.0,SW,13.8,-,N/A,,Clear,230,2013-09-06 01:53:00
7:53 PM,73.9,52.0,46,29.90,10.0,SSW,4.6,-,N/A,,Clear,210,2013-09-06 02:53:00
8:53 PM,70.0,53.1,55,29.91,10.0,SSW,6.9,-,N/A,,Clear,210,2013-09-06 03:53:00
9:53 PM,66.9,54.0,63,29.94,10.0,South,3.5,-,N/A,,Clear,180,2013-09-06 04:53:00
10:53 PM,66.0,54.0,65,29.94,10.0,South,3.5,-,N/A,,Clear,180,2013-09-06 05:53:00
11:53 PM,64.0,54.0,70,29.96,10.0,Calm,Calm,-,N/A,,Clear,0,2013-09-06 06:53:00